sat.trackr.live / text

‹ back to catalog

GSAT0214 (GALILEO 18)

NORAD 41862 · 2016-069D

PAYLOAD ACTIVE UNKNOWN

§ Identity

Operator
Country
ESA
Launch date
2016-11-17
Launch site
FRGUI
Launch vehicle
Mass (kg)
RCS (m²)
8.57

Purposes: earth_obs, nav

External: N2YO · Heavens-Above · Gunter

§ Orbital elements

Epoch: 2026-09-20T03:20:32.108064Z

Period
844.70 min
Inclination
55.5560°
Eccentricity
0.0001689
Mean motion
1.70474227 rev/d
Perigee alt
23,217.2 km
Apogee alt
23,227.2 km
Semi-major
29,600.3 km
B*
0.0000e+0
RAAN
98.4527°
Arg perigee
2.9500°
Mean anomaly
357.1272°
Rev number
6,126

§ Raw data

GSAT0214 (GALILEO 18)1 41862U 16069D   26263.13926051  .00000028  00000+0  00000+0 0  99972 41862  55.5560  98.4527 0001689   2.9500 357.1272  1.70474227 61260

JSON: /api/v1/satellites/41862 · /tle

For live sub-satellite position, see the globe view (requires WebGL).

§ Visibility from observer

Set your observer location to see the next 7 days of passes ≥ 10°. The values pass through the URL so the page stays shareable.

No JS? Fill the form by hand. The geolocation button needs JavaScript.